Location: Sungai Igah
(2.7333°N, 114.2500°E)
Time: 22:29:02
(UTC+00:00)

METEOR-M - Pass Details

Date: 14 June 2021
Orbit: 815 x 820 km, 98.5° (Epoch: 25 July)

Event Time Altitude Azimuth Distance (km) Brightness Sun altitude
Rises 20:29:04 0° 8° (N) 3,328 7.8 -24.8°
Reaches altitude 10° 20:31:24 10° 6° (N) 2,397 7.0 -24.3°
Maximum altitude 20:36:41 72° 283° (WNW) 854 4.0 -23.2°
Enters shadow 20:38:05 49° 215° (SW) 1,039 4.3 -22.8°
